Location: Asheville, NC
(35.6000°N, 82.5500°W)
Time: 20:10:43

CUTE-I - Pass Details

Date: 16 March 2018
Orbit: 812 x 824 km, 98.7° (Epoch: 17 March)

Event Time Altitude Azimuth Distance (km) Brightness Sun altitude
Rises 20:03:22 0° 198° (SSW) 3,328 ? -5.9°
Reaches altitude 10° 20:06:08 10° 212° (SSW) 2,403 ? -6.4°
Maximum altitude 20:10:22 24° 265° (W) 1,638 ? -7.3°
Drops below altitude 10° 20:14:39 10° 318° (NW) 2,421 ? -8.1°
Sets 20:17:28 0° 332° (NNW) 3,360 ? -8.7°
